User: anonymous   Login
Location: �terpigny
(49.8910°N, 2.9249°E)
Time: 23:05:32
(UTC+00:00)
Language:

Cosmos 1190 Rocket - Orbit

View from above orbital plane
View from above orbital plane
View from above satellite
View from above satellite

Ground track
Ground track

The orbit data is extracted from the following two-line orbital elements,

1 11870U 80056B   22026.33135237  .00000032  00000-0  19760-4 0  9997
2 11870  74.0546 354.4282 0017665 249.8123 110.1131 14.37053276152854
Epoch (UTC): 26 January 2022 07:57:08
Eccentricity: 0.0017665
inclination: 74.0546°
perigee height: 755 km
apogee height: 781 km
right ascension of ascending node: 354.4282°
argument of perigee: 249.8123°
revolutions per day: 14.37053276
mean anomaly at epoch: 110.1131°
orbit number at epoch: 15285

The dashed part of the orbit path shows where the satellite is in the earth's shadow,  

DLR